Regional Weather Roundup
Issued by NWS Cleveland, OH

Home | Current Version | Previous Version | Graphics & Text | Print | Product List | Glossary On
Versions: 1 2 3 4 5 6 7 8 9 10 11 12 13 14 15 16 17 18 19 20 21 22 23 24 25 26 27 28 29 30 31 32 33 34 35 36 37 38 39 40 41 42 43 44 45 46 47 48 49 50
000
ASUS41 KCLE 101812
RWRCLE
OHIO REGIONAL WEATHER ROUNDUP
NATIONAL WEATHER SERVICE WILMINGTON, OH
100 PM EST WED FEB 10 2016

NOTE: "FAIR" INDICATES FEW OR NO CLOUDS BELOW 12,000 FEET WITH NO
SIGNIFICANT WEATHER AND/OR OBSTRUCTIONS TO VISIBILITY.

OHZ001>008-015>018-024>027-034-035-043-044-101900-
   NORTHWEST OHIO

CITY           SKY/WX    TMP DP  RH WIND       PRES   REMARKS
DEFIANCE       LGT SNOW  22  15  75 NW17      29.90S WCI   8
FINDLAY        LGT SNOW  24  17  74 W21       29.87S WCI   9
TOLEDO EXPRESS PTSUNNY   22   9  57 NW15      29.86F WCI   9
TOLEDO EXEC    CLOUDY    23  11  60 NW13      29.86F WCI  11
LIMA           FLURRIES  19  13  77 W20G25    29.90S WCI   3
$$

OHZ009>014-019>023-028>033-038-089-101900-
   NORTHEAST OHIO

CITY           SKY/WX    TMP DP  RH WIND       PRES   REMARKS
CLE-HOPKINS    SNOW      21  16  81 W14       29.84S VSB 1/2 WCI   8
CLE-LAKEFRONT  LGT SNOW  24  17  74 W29G39    29.80F WCI   7
CUY CO. ARPT   NOT AVBL
LORAIN-ELYRIA  CLOUDY    22  10  60 W16G24    29.83S WCI   8
ASHTABULA      LGT SNOW  21  17  84 NW12G23   29.76S VSB 1   WCI   9
AKRON-CANTON   LGT SNOW  20  13  74 W15       29.80S WCI   6
WOOSTER        LGT SNOW  20  12  71 W14       29.82F WCI   7
MANSFIELD      LGT SNOW  20  13  74 W12G22    29.82S WCI   8
YOUNGSTOWN     LGT SNOW  22  14  71 W18G25    29.76F FOG     WCI   7
$$

OHZ042-051>053-060>062-070>072-077>081-101900-
  SOUTHWEST OHIO

CITY           SKY/WX    TMP DP  RH WIND       PRES   REMARKS
CINC-COVINGTON FLURRIES  17   7  64 W14G23    30.03S WCI   3
CINC-LUNKEN    CLOUDY    18   8  65 W15       30.07S WCI   4
HAMILTON       CLOUDY    20   9  62 W13       30.04F WCI   7
DAYTON         FLURRIES  17   9  70 W21G29    29.97R WCI   0
WRIGHT-PAT AFB LGT SNOW  18  11  77 SW17      29.96F VSB 1   WCI   2
DAYTON GENERAL CLOUDY    17   7  64 W13G21    29.97F HAZE    WCI   4
WILMINGTON     LGT SNOW  16   9  74 W14       29.96S WCI   2
$$

OHZ036-037-039>041-045>050-054>059-063>069-073>076-082>088-101900-
  CENTRAL AND SOUTHEAST OHIO

CITY           SKY/WX    TMP DP  RH WIND       PRES   REMARKS
COLUMBUS       LGT SNOW  18  11  74 W13       29.93S WCI   5
OSU AIRPORT    LGT SNOW  18  11  74 W17       29.92S WCI   3
BOLTON FIELD   LGT SNOW  18  10  73 W15G21    29.94S WCI   3
RICKENBACK AFB LGT SNOW  18  13  81 W17G23    29.95F WCI   3
NEWARK         FLURRIES  20  12  71 MISG      29.91R
MARION         LGT SNOW  20  12  71 W15G22    29.88F WCI   6
LANCASTER      LGT SNOW  18  12  77 W15       29.94S WCI   4
ZANESVILLE     CLOUDY    21  11  65 W16G22    29.90S WCI   7
NEW PHILLY     LGT SNOW  20  13  74 SW8       29.86F WCI  10
$$



USA.gov is the U.S. government's official web portal to all federal, state and local government web resources and services.